| time (UTC) | temp F | wind direction | speed MPH | gust MPH | rain 1hr in | rain 24hr in | rain mn in | humidity % | barometer mb |
| 20260901140822 | 85 | 241 | 0.0 | 2.0 | 0.00 | 0.00 | 0.00 | 69 | 1020.0 |
| 20260901140320 | 86 | 201 | 1.0 | 4.0 | 0.00 | 0.00 | 0.00 | 68 | 1020.0 |
| 20260901135816 | 85 | 264 | 4.0 | 6.0 | 0.00 | 0.00 | 0.00 | 69 | 1020.0 |
| 20260901135310 | 85 | 176 | 2.0 | 5.0 | 0.00 | 0.00 | 0.00 | 70 | 1020.0 |
| 20260901134806 | 84 | 231 | 1.0 | 2.0 | 0.00 | 0.00 | 0.00 | 72 | 1020.0 |
| 20260901134301 | 83 | 231 | 3.0 | 4.0 | 0.00 | 0.00 | 0.00 | 73 | 1020.3 |
| 20260901133800 | 83 | 231 | 4.0 | 5.0 | 0.00 | 0.00 | 0.00 | 73 | 1020.0 |
| 20260901133301 | 83 | 238 | 2.0 | 4.0 | 0.00 | 0.00 | 0.00 | 73 | 1020.3 |
| 20260901132759 | 82 | 0 | 0.0 | 0.0 | 0.00 | 0.00 | 0.00 | 74 | 1020.3 |
| 20260901132254 | 82 | 0 | 0.0 | 0.0 | 0.00 | 0.00 | 0.00 | 75 | 1020.3 |
| 20260901131748 | 81 | 0 | 0.0 | 0.0 | 0.00 | 0.00 | 0.00 | 76 | 1020.6 |
| 20260901131248 | 80 | 0 | 0.0 | 0.0 | 0.00 | 0.00 | 0.00 | 77 | 1020.3 |
| 20260901130743 | 80 | 0 | 0.0 | 0.0 | 0.00 | 0.00 | 0.00 | 79 | 1020.3 |
| 20260901130243 | 79 | 351 | 0.0 | 0.0 | 0.00 | 0.00 | 0.00 | 79 | 1020.3 |
| 20260901125740 | 79 | 351 | 0.0 | 0.0 | 0.00 | 0.00 | 0.00 | 81 | 1020.6 |
| 20260901124951 | 77 | 351 | 0.0 | 0.0 | 0.00 | 0.00 | 0.00 | 83 | 1020.3 |
| 20260901124446 | 77 | 351 | 0.0 | 0.0 | 0.00 | 0.00 | 0.00 | 83 | 1020.3 |
| 20260901123941 | 77 | 351 | 0.0 | 0.0 | 0.00 | 0.00 | 0.00 | 82 | 1020.6 |
| 20260901123436 | 76 | 351 | 0.0 | 0.0 | 0.00 | 0.00 | 0.00 | 87 | 1020.6 |
| 20260901122933 | 75 | 351 | 0.0 | 0.0 | 0.00 | 0.00 | 0.00 | 89 | 1020.6 |
| 20260901122428 | 75 | 351 | 0.0 | 0.0 | 0.00 | 0.00 | 0.00 | 92 | 1020.6 |
| 20260901121927 | 74 | 351 | 0.0 | 0.0 | 0.00 | 0.00 | 0.00 | 92 | 1020.6 |
| 20260901121423 | 73 | 351 | 0.0 | 0.0 | 0.00 | 0.00 | 0.00 | 95 | 1020.6 |
| 20260901120918 | 71 | 351 | 0.0 | 0.0 | 0.00 | 0.00 | 0.00 | 97 | 1020.6 |
| 20260901120417 | 70 | 351 | 0.0 | 0.0 | 0.00 | 0.00 | 0.00 | 98 | 1020.6 |
| 20260901115913 | 69 | 351 | 0.0 | 0.0 | 0.00 | 0.00 | 0.00 | 99 | 1020.6 |
| 20260901115412 | 69 | 351 | 0.0 | 0.0 | 0.00 | 0.00 | 0.00 | 99 | 1020.6 |
| 20260901114911 | 68 | 351 | 0.0 | 0.0 | 0.00 | 0.00 | 0.00 | 100 | 1020.6 |
| 20260901114406 | 68 | 351 | 0.0 | 0.0 | 0.00 | 0.00 | 0.00 | 100 | 1020.6 |
| 20260901113904 | 68 | 351 | 0.0 | 0.0 | 0.00 | 0.00 | 0.00 | 100 | 1020.3 |
| 20260901113403 | 68 | 351 | 0.0 | 0.0 | 0.00 | 0.00 | 0.00 | 100 | 1020.3 |
| 20260901112859 | 67 | 351 | 0.0 | 0.0 | 0.00 | 0.00 | 0.00 | 100 | 1020.3 |
| 20260901112353 | 67 | 351 | 0.0 | 0.0 | 0.00 | 0.00 | 0.00 | 100 | 1020.3 |
| 20260901111848 | 67 | 351 | 0.0 | 0.0 | 0.00 | 0.00 | 0.00 | 99 | 1020.3 |
| 20260901111346 | 67 | 351 | 0.0 | 0.0 | 0.00 | 0.00 | 0.00 | 100 | 1020.3 |
| 20260901110845 | 67 | 351 | 0.0 | 0.0 | 0.00 | 0.00 | 0.00 | 100 | 1020.3 |
| 20260901110341 | 67 | 351 | 0.0 | 0.0 | 0.00 | 0.00 | 0.00 | 99 | 1020.3 |
| 20260901105837 | 67 | 351 | 0.0 | 0.0 | 0.00 | 0.00 | 0.00 | 99 | 1020.3 |
| 20260901105332 | 67 | 351 | 0.0 | 0.0 | 0.00 | 0.00 | 0.00 | 99 | 1020.0 |
| 20260901104829 | 67 | 351 | 0.0 | 0.0 | 0.00 | 0.00 | 0.00 | 100 | 1020.0 |
| 20260901104324 | 67 | 351 | 0.0 | 0.0 | 0.00 | 0.00 | 0.00 | 99 | 1020.0 |
| 20260901103819 | 67 | 351 | 0.0 | 0.0 | 0.00 | 0.00 | 0.00 | 99 | 1020.0 |
| 20260901103319 | 67 | 351 | 0.0 | 0.0 | 0.00 | 0.00 | 0.00 | 99 | 1020.0 |
| 20260901102814 | 67 | 351 | 0.0 | 0.0 | 0.00 | 0.00 | 0.00 | 99 | 1020.0 |
| 20260901102313 | 67 | 351 | 0.0 | 0.0 | 0.00 | 0.00 | 0.00 | 99 | 1020.0 |
| 20260901101809 | 68 | 351 | 0.0 | 0.0 | 0.00 | 0.00 | 0.00 | 99 | 1020.0 |
| 20260901101309 | 68 | 351 | 0.0 | 0.0 | 0.00 | 0.00 | 0.00 | 99 | 1020.0 |
| 20260901100808 | 68 | 351 | 0.0 | 0.0 | 0.00 | 0.00 | 0.00 | 100 | 1020.0 |
| 20260901100303 | 67 | 351 | 0.0 | 0.0 | 0.00 | 0.00 | 0.00 | 99 | 1020.0 |
| 20260901095802 | 67 | 351 | 0.0 | 0.0 | 0.00 | 0.00 | 0.00 | 99 | 1020.0 |
| 20260901095259 | 67 | 351 | 0.0 | 0.0 | 0.00 | 0.00 | 0.00 | 99 | 1020.0 |
| 20260901094754 | 68 | 351 | 0.0 | 0.0 | 0.00 | 0.00 | 0.00 | 99 | 1020.0 |
| 20260901094249 | 68 | 351 | 0.0 | 0.0 | 0.00 | 0.00 | 0.00 | 99 | 1020.0 |
| 20260901093744 | 68 | 351 | 0.0 | 0.0 | 0.00 | 0.00 | 0.00 | 100 | 1020.0 |
| 20260901093237 | 68 | 351 | 0.0 | 0.0 | 0.00 | 0.00 | 0.00 | 99 | 1020.0 |
| 20260901092734 | 68 | 351 | 0.0 | 0.0 | 0.00 | 0.00 | 0.00 | 99 | 1020.0 |
| 20260901092230 | 67 | 351 | 0.0 | 0.0 | 0.00 | 0.00 | 0.00 | 99 | 1020.0 |
| 20260901091725 | 68 | 351 | 0.0 | 0.0 | 0.00 | 0.00 | 0.00 | 99 | 1020.0 |
| 20260901091220 | 68 | 351 | 0.0 | 0.0 | 0.00 | 0.00 | 0.00 | 99 | 1020.0 |
| 20260901090715 | 68 | 351 | 0.0 | 0.0 | 0.00 | 0.00 | 0.00 | 99 | 1020.0 |
| 20260901090210 | 68 | 351 | 0.0 | 0.0 | 0.00 | 0.00 | 0.00 | 99 | 1020.0 |
| 20260901085706 | 68 | 351 | 0.0 | 0.0 | 0.00 | 0.00 | 0.00 | 99 | 1020.0 |
| 20260901085201 | 68 | 351 | 0.0 | 0.0 | 0.00 | 0.00 | 0.00 | 99 | 1020.0 |
| 20260901084658 | 68 | 351 | 0.0 | 0.0 | 0.00 | 0.00 | 0.00 | 99 | 1020.0 |
| 20260901084153 | 68 | 351 | 0.0 | 0.0 | 0.00 | 0.00 | 0.00 | 99 | 1020.0 |
| 20260901083653 | 68 | 351 | 0.0 | 0.0 | 0.00 | 0.00 | 0.00 | 99 | 1020.0 |
| 20260901083152 | 68 | 351 | 0.0 | 0.0 | 0.00 | 0.00 | 0.00 | 99 | 1020.0 |
| 20260901082645 | 68 | 351 | 0.0 | 0.0 | 0.00 | 0.00 | 0.00 | 99 | 1020.0 |
| 20260901082141 | 69 | 351 | 0.0 | 0.0 | 0.00 | 0.00 | 0.00 | 99 | 1020.0 |
| 20260901081636 | 68 | 351 | 0.0 | 0.0 | 0.00 | 0.00 | 0.00 | 98 | 1020.0 |
| 20260901081131 | 69 | 351 | 0.0 | 0.0 | 0.00 | 0.00 | 0.00 | 99 | 1020.3 |
| 20260901080631 | 69 | 351 | 0.0 | 0.0 | 0.00 | 0.00 | 0.00 | 99 | 1020.3 |
| 20260901080129 | 69 | 351 | 0.0 | 0.0 | 0.00 | 0.00 | 0.00 | 99 | 1020.0 |
| 20260901075625 | 69 | 351 | 0.0 | 0.0 | 0.00 | 0.00 | 0.00 | 98 | 1020.0 |
| 20260901075125 | 69 | 351 | 0.0 | 0.0 | 0.00 | 0.00 | 0.00 | 98 | 1020.0 |
| 20260901074624 | 69 | 351 | 0.0 | 0.0 | 0.00 | 0.00 | 0.00 | 98 | 1020.0 |
| 20260901074119 | 69 | 351 | 0.0 | 0.0 | 0.00 | 0.00 | 0.00 | 98 | 1020.3 |
| 20260901073617 | 69 | 351 | 0.0 | 0.0 | 0.00 | 0.00 | 0.00 | 98 | 1020.0 |
| 20260901073117 | 69 | 351 | 0.0 | 0.0 | 0.00 | 0.00 | 0.00 | 98 | 1020.3 |
| 20260901072612 | 69 | 351 | 0.0 | 0.0 | 0.00 | 0.00 | 0.00 | 98 | 1020.3 |
| 20260901072107 | 69 | 351 | 0.0 | 0.0 | 0.00 | 0.00 | 0.00 | 98 | 1020.3 |
| 20260901071601 | 69 | 351 | 0.0 | 0.0 | 0.00 | 0.00 | 0.00 | 98 | 1020.3 |
| 20260901071100 | 69 | 351 | 0.0 | 0.0 | 0.00 | 0.00 | 0.00 | 98 | 1020.3 |
| 20260901070555 | 69 | 351 | 0.0 | 0.0 | 0.00 | 0.00 | 0.00 | 98 | 1020.3 |
| 20260901070050 | 69 | 351 | 0.0 | 0.0 | 0.00 | 0.00 | 0.00 | 98 | 1020.3 |
| 20260901065544 | 69 | 351 | 0.0 | 0.0 | 0.00 | 0.00 | 0.00 | 98 | 1020.3 |
| 20260901065039 | 69 | 351 | 0.0 | 0.0 | 0.00 | 0.00 | 0.00 | 98 | 1020.3 |
| 20260901064536 | 69 | 351 | 0.0 | 0.0 | 0.00 | 0.00 | 0.00 | 98 | 1020.3 |
| 20260901064032 | 70 | 351 | 0.0 | 0.0 | 0.00 | 0.00 | 0.00 | 98 | 1020.3 |
| 20260901063529 | 70 | 351 | 0.0 | 0.0 | 0.00 | 0.00 | 0.00 | 98 | 1020.6 |
| 20260901063025 | 70 | 351 | 0.0 | 0.0 | 0.00 | 0.00 | 0.00 | 98 | 1020.6 |
| 20260901062521 | 70 | 351 | 0.0 | 0.0 | 0.00 | 0.00 | 0.00 | 98 | 1020.6 |
| 20260901062017 | 70 | 351 | 0.0 | 0.0 | 0.00 | 0.00 | 0.00 | 98 | 1020.6 |
| 20260901061513 | 69 | 351 | 0.0 | 0.0 | 0.00 | 0.00 | 0.00 | 98 | 1020.6 |
| 20260901061012 | 69 | 351 | 0.0 | 0.0 | 0.00 | 0.00 | 0.00 | 97 | 1020.6 |
| 20260901060507 | 69 | 351 | 0.0 | 0.0 | 0.00 | 0.00 | 0.00 | 97 | 1020.6 |
| 20260901060008 | 70 | 351 | 0.0 | 0.0 | 0.00 | 0.00 | 0.00 | 97 | 1020.6 |
| 20260901055503 | 70 | 351 | 0.0 | 0.0 | 0.00 | 0.00 | 0.00 | 97 | 1020.6 |
| 20260901055000 | 70 | 351 | 0.0 | 0.0 | 0.00 | 0.00 | 0.00 | 97 | 1021.0 |
| 20260901054457 | 70 | 351 | 0.0 | 0.0 | 0.00 | 0.00 | 0.00 | 97 | 1021.0 |
| 20260901053953 | 70 | 351 | 0.0 | 0.0 | 0.00 | 0.00 | 0.00 | 98 | 1021.0 |
| 20260901053448 | 70 | 351 | 0.0 | 3.0 | 0.00 | 0.00 | 0.00 | 98 | 1021.0 |
| 20260901052943 | 70 | 351 | 0.0 | 0.0 | 0.00 | 0.00 | 0.00 | 98 | 1021.0 |
| 20260901052439 | 70 | 351 | 0.0 | 0.0 | 0.00 | 0.00 | 0.00 | 98 | 1021.0 |
| 20260901051938 | 70 | 351 | 0.0 | 0.0 | 0.00 | 0.00 | 0.00 | 98 | 1021.0 |
| 20260901051434 | 70 | 351 | 0.0 | 0.0 | 0.00 | 0.00 | 0.00 | 98 | 1021.0 |
| 20260901050933 | 70 | 351 | 0.0 | 0.0 | 0.00 | 0.00 | 0.00 | 98 | 1021.0 |
| 20260901050429 | 70 | 351 | 0.0 | 0.0 | 0.00 | 0.00 | 0.00 | 97 | 1021.0 |
| 20260901045928 | 70 | 351 | 0.0 | 0.0 | 0.00 | 0.00 | 0.00 | 97 | 1021.3 |
| 20260901045424 | 70 | 351 | 0.0 | 0.0 | 0.00 | 0.00 | 0.00 | 97 | 1021.3 |
| 20260901044918 | 70 | 351 | 0.0 | 0.0 | 0.00 | 0.00 | 0.00 | 97 | 1021.0 |
| 20260901044415 | 70 | 351 | 0.0 | 0.0 | 0.00 | 0.00 | 0.00 | 97 | 1021.0 |
| 20260901043910 | 71 | 351 | 0.0 | 0.0 | 0.00 | 0.00 | 0.00 | 97 | 1021.0 |
| 20260901043406 | 71 | 351 | 0.0 | 0.0 | 0.00 | 0.00 | 0.00 | 96 | 1021.0 |
| 20260901042900 | 71 | 351 | 0.0 | 0.0 | 0.00 | 0.00 | 0.00 | 95 | 1021.0 |
| 20260901042355 | 71 | 351 | 0.0 | 0.0 | 0.00 | 0.00 | 0.00 | 95 | 1021.0 |
| 20260901041851 | 71 | 351 | 0.0 | 0.0 | 0.00 | 0.00 | 0.00 | 95 | 1021.0 |
| 20260901041345 | 71 | 351 | 0.0 | 0.0 | 0.00 | 0.00 | 0.00 | 95 | 1021.0 |
| 20260901040840 | 71 | 351 | 0.0 | 0.0 | 0.00 | 0.00 | 0.00 | 95 | 1021.0 |
| 20260901040339 | 71 | 351 | 0.0 | 0.0 | 0.00 | 0.00 | 0.00 | 95 | 1021.3 |
| 20260901035838 | 71 | 351 | 0.0 | 0.0 | 0.00 | 0.01 | 0.01 | 95 | 1021.3 |
| 20260901035337 | 71 | 351 | 0.0 | 0.0 | 0.00 | 0.01 | 0.01 | 95 | 1021.3 |
| 20260901034836 | 72 | 351 | 0.0 | 0.0 | 0.00 | 0.01 | 0.01 | 94 | 1021.3 |
| 20260901034332 | 72 | 351 | 0.0 | 0.0 | 0.00 | 0.01 | 0.01 | 93 | 1021.3 |
| 20260901033831 | 72 | 351 | 0.0 | 0.0 | 0.00 | 0.01 | 0.01 | 92 | 1021.3 |
| 20260901033330 | 72 | 351 | 0.0 | 0.0 | 0.00 | 0.01 | 0.01 | 93 | 1021.3 |
| 20260901032829 | 72 | 351 | 0.0 | 0.0 | 0.00 | 0.01 | 0.01 | 94 | 1021.3 |
| 20260901032328 | 72 | 351 | 0.0 | 0.0 | 0.00 | 0.01 | 0.01 | 93 | 1021.3 |
| 20260901031823 | 72 | 351 | 1.0 | 2.0 | 0.00 | 0.01 | 0.01 | 93 | 1021.3 |
| 20260901031319 | 72 | 351 | 0.0 | 2.0 | 0.00 | 0.01 | 0.01 | 94 | 1021.3 |
| 20260901030819 | 72 | 351 | 0.0 | 0.0 | 0.00 | 0.01 | 0.01 | 94 | 1021.3 |
| 20260901030314 | 72 | 351 | 0.0 | 0.0 | 0.00 | 0.01 | 0.01 | 94 | 1021.3 |
| 20260901025813 | 73 | 351 | 0.0 | 2.0 | 0.00 | 0.01 | 0.01 | 94 | 1021.3 |
| 20260901025308 | 73 | 351 | 0.0 | 0.0 | 0.00 | 0.01 | 0.01 | 93 | 1021.3 |
| 20260901024803 | 73 | 351 | 0.0 | 0.0 | 0.00 | 0.01 | 0.01 | 92 | 1021.3 |
| 20260901024303 | 73 | 351 | 0.0 | 0.0 | 0.00 | 0.01 | 0.01 | 92 | 1021.3 |
| 20260901023800 | 74 | 351 | 0.0 | 0.0 | 0.00 | 0.01 | 0.01 | 92 | 1021.3 |
| 20260901023255 | 74 | 351 | 0.0 | 0.0 | 0.00 | 0.01 | 0.01 | 91 | 1021.3 |
| 20260901022751 | 74 | 351 | 0.0 | 0.0 | 0.00 | 0.01 | 0.01 | 91 | 1021.3 |
| 20260901022247 | 74 | 351 | 0.0 | 0.0 | 0.00 | 0.01 | 0.01 | 90 | 1021.3 |
| 20260901021741 | 74 | 351 | 0.0 | 0.0 | 0.00 | 0.01 | 0.01 | 91 | 1021.3 |
| 20260901021237 | 74 | 351 | 0.0 | 0.0 | 0.00 | 0.01 | 0.01 | 91 | 1021.3 |
| 20260901020732 | 74 | 351 | 1.0 | 3.0 | 0.00 | 0.01 | 0.01 | 92 | 1021.3 |
| 20260901020228 | 74 | 351 | 0.0 | 0.0 | 0.00 | 0.01 | 0.01 | 92 | 1021.0 |
| 20260901015723 | 74 | 351 | 0.0 | 0.0 | 0.00 | 0.01 | 0.01 | 91 | 1021.0 |
| 20260901015219 | 74 | 351 | 0.0 | 2.0 | 0.00 | 0.01 | 0.01 | 92 | 1021.0 |
| 20260901014718 | 74 | 351 | 3.0 | 4.0 | 0.00 | 0.01 | 0.01 | 92 | 1021.0 |
| 20260901014214 | 74 | 351 | 0.0 | 1.0 | 0.00 | 0.01 | 0.01 | 91 | 1021.0 |
| 20260901013709 | 75 | 351 | 0.0 | 0.0 | 0.00 | 0.01 | 0.01 | 90 | 1021.0 |
| 20260901013205 | 75 | 351 | 0.0 | 0.0 | 0.00 | 0.01 | 0.01 | 90 | 1021.0 |
| 20260901012700 | 76 | 351 | 0.0 | 0.0 | 0.00 | 0.01 | 0.01 | 89 | 1021.0 |
| 20260901012155 | 75 | 351 | 1.0 | 3.0 | 0.00 | 0.01 | 0.01 | 90 | 1021.0 |
| 20260901011651 | 76 | 351 | 0.0 | 0.0 | 0.00 | 0.01 | 0.01 | 89 | 1020.6 |
| 20260901011150 | 76 | 351 | 1.0 | 3.0 | 0.00 | 0.01 | 0.01 | 89 | 1020.6 |
| 20260901010645 | 76 | 351 | 0.0 | 0.0 | 0.00 | 0.01 | 0.01 | 89 | 1020.6 |
| 20260901010145 | 76 | 351 | 0.0 | 0.0 | 0.00 | 0.01 | 0.01 | 88 | 1020.6 |
| 20260901005643 | 76 | 351 | 0.0 | 0.0 | 0.00 | 0.01 | 0.01 | 88 | 1020.6 |
| 20260901005139 | 77 | 351 | 0.0 | 0.0 | 0.00 | 0.01 | 0.01 | 86 | 1020.3 |
| 20260901004638 | 78 | 351 | 0.0 | 0.0 | 0.00 | 0.01 | 0.01 | 85 | 1020.3 |
| 20260901004133 | 78 | 351 | 0.0 | 0.0 | 0.00 | 0.01 | 0.01 | 85 | 1020.3 |
| 20260901003623 | 78 | 351 | 0.0 | 0.0 | 0.00 | 0.01 | 0.01 | 84 | 1020.3 |
| 20260901003122 | 78 | 351 | 0.0 | 1.0 | 0.00 | 0.01 | 0.01 | 82 | 1020.3 |
| 20260901002621 | 78 | 351 | 0.0 | 0.0 | 0.00 | 0.01 | 0.01 | 83 | 1020.3 |
| 20260901002116 | 78 | 351 | 0.0 | 1.0 | 0.00 | 0.01 | 0.01 | 84 | 1020.3 |
| 20260901001611 | 78 | 351 | 0.0 | 0.0 | 0.00 | 0.01 | 0.01 | 83 | 1020.3 |
| 20260901001107 | 79 | 351 | 0.0 | 0.0 | 0.00 | 0.01 | 0.01 | 82 | 1020.0 |
| 20260901000601 | 79 | 351 | 0.0 | 0.0 | 0.00 | 0.01 | 0.01 | 81 | 1020.0 |
| 20260901000057 | 80 | 351 | 0.0 | 0.0 | 0.00 | 0.01 | 0.01 | 79 | 1020.0 |
| 20260831235550 | 80 | 351 | 0.0 | 0.0 | 0.00 | 0.01 | 0.01 | 78 | 1020.0 |
| 20260831235046 | 81 | 351 | 0.0 | 0.0 | 0.00 | 0.01 | 0.01 | 74 | 1020.0 |
| 20260831234540 | 82 | 351 | 0.0 | 0.0 | 0.00 | 0.01 | 0.01 | 73 | 1020.0 |
| 20260831234036 | 82 | 351 | 1.0 | 3.0 | 0.00 | 0.01 | 0.01 | 73 | 1020.0 |
| 20260831233531 | 82 | 351 | 0.0 | 2.0 | 0.00 | 0.01 | 0.01 | 73 | 1020.0 |
| 20260831233027 | 82 | 351 | 0.0 | 0.0 | 0.00 | 0.01 | 0.01 | 73 | 1020.0 |
| 20260831232522 | 82 | 351 | 0.0 | 3.0 | 0.00 | 0.01 | 0.01 | 72 | 1020.0 |
| 20260831232018 | 82 | 351 | 1.0 | 4.0 | 0.00 | 0.01 | 0.01 | 71 | 1020.0 |
| 20260831231514 | 83 | 2 | 0.0 | 4.0 | 0.00 | 0.01 | 0.01 | 71 | 1020.0 |
| 20260831231010 | 83 | 14 | 4.0 | 8.0 | 0.00 | 0.01 | 0.01 | 69 | 1020.0 |
| 20260831230505 | 84 | 5 | 3.0 | 5.0 | 0.00 | 0.01 | 0.01 | 69 | 1020.0 |
| 20260831230004 | 84 | 17 | 4.0 | 5.0 | 0.00 | 0.01 | 0.01 | 68 | 1020.0 |
| 20260831225500 | 84 | 1 | 7.0 | 10.0 | 0.00 | 0.01 | 0.01 | 68 | 1020.0 |
| 20260831225000 | 84 | 2 | 5.0 | 6.0 | 0.00 | 0.01 | 0.01 | 67 | 1020.0 |
| 20260831224455 | 85 | 16 | 3.0 | 5.0 | 0.00 | 0.01 | 0.01 | 67 | 1020.0 |
| 20260831223950 | 85 | 4 | 4.0 | 6.0 | 0.00 | 0.01 | 0.01 | 66 | 1020.0 |
| 20260831223446 | 85 | 5 | 5.0 | 8.0 | 0.00 | 0.01 | 0.01 | 65 | 1020.0 |
| 20260831222942 | 85 | 10 | 4.0 | 6.0 | 0.00 | 0.01 | 0.01 | 65 | 1020.0 |
| 20260831222438 | 86 | 41 | 3.0 | 7.0 | 0.00 | 0.01 | 0.01 | 64 | 1020.0 |
| 20260831221937 | 87 | 27 | 2.0 | 4.0 | 0.00 | 0.01 | 0.01 | 63 | 1020.0 |
| 20260831221433 | 87 | 8 | 5.0 | 7.0 | 0.00 | 0.01 | 0.01 | 63 | 1020.0 |
| 20260831220928 | 87 | 78 | 1.0 | 5.0 | 0.00 | 0.01 | 0.01 | 63 | 1020.0 |
| 20260831220424 | 88 | 11 | 2.0 | 7.0 | 0.00 | 0.01 | 0.01 | 62 | 1019.5 |
| 20260831215919 | 89 | 355 | 4.0 | 6.0 | 0.00 | 0.01 | 0.01 | 62 | 1019.5 |
| 20260831215414 | 90 | 3 | 5.0 | 7.0 | 0.00 | 0.01 | 0.01 | 59 | 1019.5 |
| 20260831214911 | 90 | 107 | 4.0 | 6.0 | 0.00 | 0.01 | 0.01 | 56 | 1019.5 |
| 20260831214408 | 91 | 52 | 0.0 | 3.0 | 0.00 | 0.01 | 0.01 | 55 | 1019.5 |
| 20260831213903 | 91 | 71 | 3.0 | 4.0 | 0.00 | 0.01 | 0.01 | 55 | 1019.5 |
| 20260831213400 | 90 | 121 | 1.0 | 2.0 | 0.00 | 0.01 | 0.01 | 56 | 1019.5 |
| 20260831212855 | 90 | 121 | 2.0 | 3.0 | 0.00 | 0.01 | 0.01 | 57 | 1019.5 |
| 20260831212351 | 90 | 121 | 0.0 | 2.0 | 0.00 | 0.01 | 0.01 | 58 | 1019.5 |
| 20260831211850 | 90 | 121 | 2.0 | 3.0 | 0.00 | 0.01 | 0.01 | 58 | 1019.5 |
| 20260831211350 | 90 | 139 | 2.0 | 3.0 | 0.00 | 0.01 | 0.01 | 58 | 1019.5 |
| 20260831210850 | 90 | 139 | 3.0 | 4.0 | 0.00 | 0.01 | 0.01 | 58 | 1019.2 |
| 20260831210346 | 90 | 139 | 2.0 | 3.0 | 0.00 | 0.01 | 0.01 | 58 | 1019.2 |
| 20260831205841 | 90 | 91 | 4.0 | 5.0 | 0.00 | 0.01 | 0.01 | 57 | 1019.2 |
| 20260831205337 | 91 | 127 | 3.0 | 4.0 | 0.00 | 0.01 | 0.01 | 56 | 1019.2 |
| 20260831204832 | 91 | 127 | 4.0 | 5.0 | 0.00 | 0.01 | 0.01 | 53 | 1019.2 |
| 20260831204331 | 92 | 93 | 4.0 | 5.0 | 0.00 | 0.01 | 0.01 | 54 | 1019.2 |
| 20260831203830 | 93 | 15 | 0.0 | 0.0 | 0.00 | 0.01 | 0.01 | 53 | 1019.2 |
| 20260831203325 | 91 | 127 | 3.0 | 5.0 | 0.00 | 0.01 | 0.01 | 55 | 1019.2 |
| 20260831202823 | 90 | 85 | 3.0 | 6.0 | 0.00 | 0.01 | 0.01 | 57 | 1019.5 |
| 20260831202318 | 91 | 119 | 4.0 | 6.0 | 0.00 | 0.01 | 0.01 | 55 | 1019.5 |
| 20260831201812 | 91 | 133 | 1.0 | 4.0 | 0.00 | 0.01 | 0.01 | 54 | 1019.5 |
| 20260831201311 | 91 | 133 | 2.0 | 3.0 | 0.00 | 0.01 | 0.01 | 53 | 1019.5 |
| 20260831200807 | 91 | 133 | 2.0 | 3.0 | 0.00 | 0.01 | 0.01 | 54 | 1019.5 |
| 20260831200301 | 91 | 133 | 0.0 | 2.0 | 0.00 | 0.01 | 0.01 | 54 | 1019.5 |
| 20260831195757 | 91 | 133 | 1.0 | 3.0 | 0.00 | 0.01 | 0.01 | 53 | 1019.5 |
| 20260831195253 | 91 | 133 | 2.0 | 3.0 | 0.00 | 0.01 | 0.01 | 53 | 1019.5 |
| 20260831194747 | 91 | 133 | 1.0 | 2.0 | 0.00 | 0.01 | 0.01 | 52 | 1019.5 |
| 20260831194244 | 90 | 133 | 1.0 | 3.0 | 0.00 | 0.01 | 0.01 | 53 | 1019.5 |
| 20260831193737 | 91 | 133 | 4.0 | 5.0 | 0.00 | 0.01 | 0.01 | 55 | 1019.5 |
| 20260831193233 | 91 | 167 | 3.0 | 4.0 | 0.00 | 0.01 | 0.01 | 53 | 1019.5 |
| 20260831192733 | 92 | 4 | 0.0 | 0.0 | 0.00 | 0.01 | 0.01 | 52 | 1019.5 |
| 20260831192228 | 93 | 4 | 0.0 | 0.0 | 0.00 | 0.01 | 0.01 | 50 | 1019.5 |
| 20260831191724 | 93 | 4 | 1.0 | 4.0 | 0.00 | 0.01 | 0.01 | 50 | 1020.0 |
| 20260831191220 | 94 | 89 | 2.0 | 4.0 | 0.00 | 0.01 | 0.01 | 49 | 1020.0 |
| 20260831190715 | 93 | 89 | 0.0 | 4.0 | 0.00 | 0.01 | 0.01 | 50 | 1020.0 |
| 20260831190214 | 92 | 90 | 0.0 | 2.0 | 0.00 | 0.01 | 0.01 | 52 | 1020.0 |
| 20260831185709 | 91 | 126 | 3.0 | 4.0 | 0.00 | 0.01 | 0.01 | 56 | 1020.0 |
| 20260831185205 | 91 | 168 | 4.0 | 6.0 | 0.00 | 0.01 | 0.01 | 57 | 1020.0 |
| 20260831184704 | 92 | 122 | 5.0 | 7.0 | 0.00 | 0.01 | 0.01 | 55 | 1020.0 |
| 20260831184200 | 92 | 121 | 2.0 | 6.0 | 0.00 | 0.01 | 0.01 | 52 | 1020.0 |
| 20260831183659 | 92 | 114 | 2.0 | 5.0 | 0.00 | 0.01 | 0.01 | 54 | 1019.5 |
| 20260831183154 | 91 | 128 | 6.0 | 8.0 | 0.00 | 0.01 | 0.01 | 56 | 1020.0 |
| 20260831182653 | 92 | 127 | 4.0 | 7.0 | 0.00 | 0.01 | 0.01 | 55 | 1020.0 |
| 20260831182149 | 92 | 105 | 7.0 | 9.0 | 0.00 | 0.01 | 0.01 | 53 | 1020.0 |
| 20260831181644 | 92 | 115 | 5.0 | 7.0 | 0.00 | 0.01 | 0.01 | 53 | 1020.0 |
| 20260831181143 | 92 | 132 | 6.0 | 8.0 | 0.00 | 0.01 | 0.01 | 55 | 1020.0 |
| 20260831180639 | 93 | 116 | 5.0 | 7.0 | 0.00 | 0.01 | 0.01 | 55 | 1020.0 |
| 20260831180133 | 91 | 120 | 5.0 | 8.0 | 0.00 | 0.01 | 0.01 | 57 | 1020.0 |
| 20260831175628 | 91 | 132 | 6.0 | 9.0 | 0.00 | 0.01 | 0.01 | 58 | 1020.0 |
| 20260831175125 | 91 | 118 | 5.0 | 6.0 | 0.00 | 0.01 | 0.01 | 54 | 1020.0 |
| 20260831174625 | 91 | 130 | 3.0 | 5.0 | 0.00 | 0.01 | 0.01 | 57 | 1020.0 |
| 20260831174120 | 91 | 113 | 5.0 | 7.0 | 0.00 | 0.01 | 0.01 | 58 | 1020.0 |
| 20260831173618 | 90 | 121 | 5.0 | 6.0 | 0.00 | 0.01 | 0.01 | 60 | 1020.0 |
| 20260831173115 | 89 | 143 | 4.0 | 5.0 | 0.00 | 0.01 | 0.01 | 62 | 1020.0 |
| 20260831172614 | 89 | 123 | 6.0 | 8.0 | 0.00 | 0.01 | 0.01 | 64 | 1020.3 |
| 20260831172114 | 88 | 151 | 5.0 | 7.0 | 0.00 | 0.01 | 0.01 | 66 | 1020.3 |
| 20260831171609 | 88 | 135 | 4.0 | 4.0 | 0.00 | 0.01 | 0.01 | 66 | 1020.3 |
| 20260831171107 | 88 | 135 | 6.0 | 7.0 | 0.00 | 0.01 | 0.01 | 64 | 1020.3 |
| 20260831170604 | 88 | 107 | 4.0 | 5.0 | 0.00 | 0.01 | 0.01 | 66 | 1020.6 |
| 20260831170101 | 86 | 121 | 4.0 | 5.0 | 0.00 | 0.01 | 0.01 | 67 | 1020.6 |
| 20260831165600 | 84 | 95 | 3.0 | 5.0 | 0.00 | 0.01 | 0.01 | 71 | 1021.0 |
| 20260831165057 | 85 | 108 | 1.0 | 5.0 | 0.00 | 0.01 | 0.01 | 72 | 1021.0 |
| 20260831164553 | 84 | 95 | 0.0 | 1.0 | 0.00 | 0.01 | 0.01 | 71 | 1021.0 |
| 20260831164048 | 84 | 95 | 0.0 | 0.0 | 0.00 | 0.01 | 0.01 | 70 | 1021.3 |
| 20260831163543 | 84 | 95 | 3.0 | 4.0 | 0.00 | 0.01 | 0.01 | 68 | 1021.3 |
| 20260831163039 | 86 | 99 | 4.0 | 5.0 | 0.00 | 0.01 | 0.01 | 65 | 1021.3 |
| 20260831162537 | 89 | 97 | 2.0 | 4.0 | 0.00 | 0.01 | 0.01 | 58 | 1021.0 |
| 20260831162036 | 89 | 97 | 0.0 | 0.0 | 0.00 | 0.01 | 0.01 | 56 | 1021.0 |
| 20260831161532 | 90 | 97 | 0.0 | 2.0 | 0.00 | 0.01 | 0.01 | 55 | 1021.0 |
| 20260831161028 | 91 | 97 | 0.0 | 0.0 | 0.00 | 0.01 | 0.01 | 55 | 1021.0 |
| 20260831160527 | 93 | 108 | 6.0 | 9.0 | 0.00 | 0.01 | 0.01 | 52 | 1020.6 |
| 20260831160023 | 93 | 126 | 1.0 | 3.0 | 0.00 | 0.01 | 0.01 | 51 | 1020.6 |
| 20260831155517 | 93 | 106 | 4.0 | 9.0 | 0.00 | 0.01 | 0.01 | 52 | 1020.3 |
| 20260831155012 | 91 | 203 | 0.0 | 1.0 | 0.00 | 0.01 | 0.01 | 54 | 1020.6 |
| 20260831154509 | 91 | 196 | 4.0 | 6.0 | 0.00 | 0.01 | 0.01 | 54 | 1020.6 |
| 20260831154009 | 92 | 110 | 4.0 | 6.0 | 0.00 | 0.01 | 0.01 | 53 | 1020.6 |
| 20260831153508 | 91 | 71 | 0.0 | 2.0 | 0.00 | 0.01 | 0.01 | 53 | 1020.6 |
| 20260831153006 | 91 | 208 | 0.0 | 4.0 | 0.00 | 0.01 | 0.01 | 55 | 1020.6 |
| 20260831152500 | 90 | 219 | 2.0 | 4.0 | 0.00 | 0.01 | 0.01 | 55 | 1020.6 |
| 20260831151955 | 90 | 219 | 3.0 | 4.0 | 0.00 | 0.01 | 0.01 | 58 | 1021.0 |
| 20260831151455 | 90 | 198 | 3.0 | 5.0 | 0.00 | 0.01 | 0.01 | 55 | 1021.0 |
| 20260831150950 | 90 | 198 | 2.0 | 4.0 | 0.00 | 0.01 | 0.01 | 58 | 1020.6 |
| 20260831150445 | 90 | 198 | 3.0 | 4.0 | 0.00 | 0.01 | 0.01 | 58 | 1021.0 |
| 20260831145945 | 90 | 236 | 1.0 | 2.0 | 0.00 | 0.01 | 0.01 | 60 | 1020.6 |
| 20260831145441 | 89 | 236 | 4.0 | 4.0 | 0.00 | 0.01 | 0.01 | 60 | 1020.6 |
| 20260831144936 | 88 | 120 | 1.0 | 3.0 | 0.00 | 0.01 | 0.01 | 60 | 1020.6 |
| 20260831144432 | 88 | 120 | 0.0 | 2.0 | 0.00 | 0.01 | 0.01 | 59 | 1020.6 |
| 20260831143927 | 87 | 120 | 1.0 | 2.0 | 0.00 | 0.01 | 0.01 | 62 | 1021.0 |
| 20260831143422 | 87 | 120 | 2.0 | 4.0 | 0.00 | 0.01 | 0.01 | 65 | 1020.6 |
| 20260831142918 | 86 | 120 | 0.0 | 2.0 | 0.00 | 0.01 | 0.01 | 67 | 1021.0 |
| 20260831142414 | 85 | 120 | 3.0 | 4.0 | 0.00 | 0.01 | 0.01 | 68 | 1021.0 |
| 20260831141908 | 85 | 213 | 0.0 | 0.0 | 0.00 | 0.01 | 0.01 | 69 | 1021.0 |
| 20260831141402 | 85 | 177 | 0.0 | 2.0 | 0.00 | 0.01 | 0.01 | 70 | 1021.0 |